START_TIME,STEP,MOV.,M34,t_acc.,L5,t_acc.,L18,t_acc.,L14,t_acc.
1980-11-13 15:00:13.250 ,5,0,0.,12.0,0.,12.0,0.,12.0,0.,12.0
1980-11-13 15:00:25.250 ,5,0,0.,12.0,0.,12.0,0.,12.0,0.,12.0
1980-11-13 15:00:37.250 ,6,1,0.,12.0,0.,12.0,0.,12.0,0.,12.0
1980-11-13 15:00:49.250 ,6,1,0.,12.0,0.,12.0,0.,12.0,0.,12.0
1980-11-13 15:01:01.250 ,6,0,0.,12.0,0.,12.0,0.,12.0,0.,12.0
1980-11-13 15:01:13.250 ,6,0,0.,12.0,0.,12.0,0.,12.0,0.,12.0
1980-11-13 15:01:25.250 ,7,1,0.,12.0,0.,12.0,0.,12.0,0.,12.0
1980-11-13 15:01:37.250 ,7,1,0.,12.0,1.,12.0,0.,12.0,0.,12.0
1980-11-13 15:01:49.250 ,7,0,0.,12.0,3.,12.0,0.,12.0,0.,12.0
1980-11-13 15:02:01.250 ,7,0,0.,12.0,6.,12.0,0.,12.0,0.,12.0
1980-11-13 15:02:13.250 ,7,1,0.,12.0,4.,12.0,0.,12.0,0.,12.0
1980-11-13 15:02:25.250 ,7,1,0.,12.0,3.,12.0,0.,12.0,0.,12.0
1980-11-13 15:02:37.250 ,7,0,0.,12.0,2.,12.0,0.,12.0,0.,12.0
1980-11-13 15:02:49.250 ,7,0,0.,12.0,4.,12.0,0.,12.0,0.,12.0
1980-11-13 15:03:01.250 ,6,1,0.,12.0,5.,12.0,0.,12.0,0.,12.0
1980-11-13 15:03:13.250 ,6,1,0.,12.0,0.,12.0,0.,12.0,0.,12.0
1980-11-13 15:03:25.250 ,6,0,0.,12.0,0.,12.0,0.,12.0,0.,12.0
1980-11-13 15:03:37.250 ,6,0,0.,12.0,0.,12.0,0.,12.0,0.,12.0
1980-11-13 15:03:49.250 ,5,1,0.,12.0,0.,12.0,0.,12.0,0.,12.0
1980-11-13 15:04:01.250 ,5,1,0.,12.0,0.,12.0,0.,12.0,0.,12.0
1980-11-13 15:04:13.250 ,5,0,0.,12.0,0.,12.0,0.,12.0,0.,12.0
1980-11-13 15:04:25.250 ,5,0,0.,12.0,0.,12.0,0.,12.0,0.,12.0
1980-11-13 15:04:37.250 ,4,1,0.,12.0,0.,12.0,0.,12.0,0.,12.0
1980-11-13 15:04:49.250 ,4,1,0.,12.0,0.,12.0,0.,12.0,1.,12.0
1980-11-13 15:05:01.250 ,4,0,0.,12.0,0.,12.0,0.,12.0,0.,12.0
1980-11-13 15:05:13.250 ,4,0,0.,12.0,0.,12.0,0.,12.0,0.,12.0
1980-11-13 15:05:25.250 ,3,1,0.,12.0,0.,12.0,0.,12.0,0.,12.0
1980-11-13 15:05:37.250 ,3,1,0.,12.0,0.,12.0,0.,12.0,0.,12.0
1980-11-13 15:05:49.250 ,3,0,0.,12.0,0.,12.0,0.,12.0,0.,12.0
1980-11-13 15:06:01.250 ,3,0,0.,12.0,0.,12.0,0.,12.0,0.,12.0
1980-11-13 15:06:13.250 ,2,1,0.,12.0,0.,12.0,0.,12.0,0.,12.0
1980-11-13 15:06:25.250 ,2,1,0.,12.0,0.,12.0,0.,12.0,0.,12.0
1980-11-13 15:06:37.250 ,2,0,0.,12.0,0.,12.0,0.,12.0,0.,12.0
1980-11-13 15:06:49.250 ,2,0,0.,12.0,0.,12.0,0.,12.0,0.,12.0
1980-11-13 15:07:01.250 ,1,1,0.,12.0,0.,12.0,0.,12.0,0.,12.0
1980-11-13 15:07:13.250 ,1,1,0.,12.0,0.,12.0,0.,12.0,0.,12.0
1980-11-13 15:07:25.250 ,1,0,0.,12.0,0.,12.0,0.,12.0,0.,12.0
1980-11-13 15:07:37.250 ,1,0,0.,12.0,0.,12.0,0.,12.0,0.,12.0
1980-11-13 15:07:49.250 ,0,1,0.,12.0,0.,12.0,0.,12.0,0.,12.0
1980-11-13 15:08:01.250 ,0,1,0.,12.0,0.,12.0,0.,12.0,1.,12.0
1980-11-13 15:08:13.250 ,0,0,0.,12.0,0.,12.0,0.,12.0,1.,12.0
1980-11-13 15:08:25.250 ,0,0,0.,12.0,0.,12.0,0.,12.0,1.,12.0
1980-11-13 15:08:37.250 ,0,1,0.,12.0,0.,12.0,0.,12.0,0.,12.0
1980-11-13 15:08:49.250 ,0,1,0.,12.0,0.,12.0,0.,12.0,0.,12.0
1980-11-13 15:09:01.250 ,0,0,0.,12.0,0.,12.0,0.,12.0,1.,12.0
1980-11-13 15:09:13.250 ,0,0,0.,12.0,0.,12.0,0.,12.0,0.,12.0
1980-11-13 15:09:25.250 ,1,1,0.,12.0,0.,12.0,0.,12.0,0.,12.0
1980-11-13 15:09:37.250 ,1,1,0.,12.0,0.,12.0,0.,12.0,0.,12.0
1980-11-13 15:09:49.250 ,1,0,0.,12.0,0.,12.0,0.,12.0,1.,12.0
1980-11-13 15:10:01.250 ,1,0,0.,12.0,0.,12.0,0.,12.0,0.,12.0
1980-11-13 15:10:13.250 ,2,1,0.,12.0,0.,12.0,0.,12.0,1.,12.0
1980-11-13 15:10:25.250 ,2,1,0.,12.0,0.,12.0,0.,12.0,0.,12.0
1980-11-13 15:10:37.250 ,2,0,0.,12.0,0.,12.0,0.,12.0,0.,12.0
1980-11-13 15:10:49.250 ,2,0,0.,12.0,0.,12.0,0.,12.0,0.,12.0
1980-11-13 15:11:01.250 ,3,1,0.,12.0,0.,12.0,0.,12.0,0.,12.0
1980-11-13 15:11:13.250 ,3,1,0.,12.0,0.,12.0,0.,12.0,0.,12.0
1980-11-13 15:11:25.250 ,3,0,0.,12.0,0.,12.0,0.,12.0,0.,12.0
1980-11-13 15:11:37.250 ,3,0,0.,12.0,0.,12.0,0.,12.0,0.,12.0
1980-11-13 15:11:49.250 ,4,1,0.,12.0,0.,12.0,0.,12.0,0.,12.0
1980-11-13 15:12:01.250 ,4,1,0.,12.0,0.,12.0,0.,12.0,0.,12.0
1980-11-13 15:12:13.250 ,4,0,0.,12.0,0.,12.0,0.,12.0,0.,12.0
1980-11-13 15:12:25.250 ,4,0,0.,12.0,0.,12.0,0.,12.0,0.,12.0
1980-11-13 15:12:37.250 ,5,1,0.,12.0,0.,12.0,0.,12.0,0.,12.0
1980-11-13 15:12:49.250 ,5,1,0.,12.0,0.,12.0,0.,12.0,0.,12.0
1980-11-13 15:13:01.250 ,5,0,0.,12.0,0.,12.0,0.,12.0,0.,12.0
1980-11-13 15:13:13.250 ,5,0,0.,12.0,0.,12.0,0.,12.0,0.,12.0
1980-11-13 15:13:25.250 ,6,1,0.,12.0,0.,12.0,0.,12.0,0.,12.0
1980-11-13 15:13:37.250 ,6,1,0.,12.0,0.,12.0,0.,12.0,0.,12.0
1980-11-13 15:13:49.250 ,6,0,0.,12.0,0.,12.0,0.,12.0,1.,12.0
1980-11-13 15:14:01.250 ,6,0,0.,12.0,0.,12.0,0.,12.0,0.,12.0
1980-11-13 15:14:13.260 ,7,1,0.,12.0,0.,12.0,0.,12.0,0.,12.0
1980-11-13 15:14:25.260 ,7,1,0.,12.0,2.,12.0,0.,12.0,0.,12.0
1980-11-13 15:14:37.260 ,7,0,0.,12.0,3.,12.0,0.,12.0,0.,12.0
1980-11-13 15:14:49.260 ,7,0,0.,12.0,5.,12.0,0.,12.0,0.,12.0
1980-11-13 15:15:01.260 ,7,1,0.,12.0,2.,12.0,0.,12.0,1.,12.0
1980-11-13 15:15:13.260 ,7,1,0.,12.0,2.,12.0,0.,12.0,0.,12.0
1980-11-13 15:15:25.260 ,7,0,0.,12.0,4.,12.0,0.,12.0,0.,12.0
1980-11-13 15:15:37.260 ,7,0,0.,12.0,5.,12.0,0.,12.0,0.,12.0
1980-11-13 15:15:49.260 ,6,1,0.,12.0,3.,12.0,0.,12.0,0.,12.0
1980-11-13 15:16:01.260 ,6,1,0.,12.0,0.,12.0,0.,12.0,0.,12.0
1980-11-13 15:16:13.260 ,6,0,0.,12.0,0.,12.0,0.,12.0,0.,12.0
1980-11-13 15:16:25.260 ,6,0,0.,12.0,0.,12.0,0.,12.0,0.,12.0
1980-11-13 15:16:37.260 ,5,1,0.,12.0,0.,12.0,0.,12.0,0.,12.0
1980-11-13 15:16:49.260 ,5,1,0.,12.0,0.,12.0,0.,12.0,0.,12.0
1980-11-13 15:17:01.260 ,5,0,0.,12.0,0.,12.0,0.,12.0,0.,12.0
1980-11-13 15:17:13.260 ,5,0,0.,12.0,0.,12.0,0.,12.0,0.,12.0
1980-11-13 15:17:25.260 ,4,1,0.,12.0,0.,12.0,0.,12.0,1.,12.0
1980-11-13 15:17:37.260 ,4,1,0.,12.0,0.,12.0,0.,12.0,0.,12.0
1980-11-13 15:17:49.260 ,4,0,0.,12.0,0.,12.0,0.,12.0,0.,12.0
1980-11-13 15:18:01.260 ,4,0,0.,12.0,0.,12.0,0.,12.0,0.,12.0
1980-11-13 15:18:13.260 ,3,1,0.,12.0,0.,12.0,0.,12.0,0.,12.0
1980-11-13 15:18:25.260 ,3,1,0.,12.0,0.,12.0,0.,12.0,0.,12.0
1980-11-13 15:18:37.260 ,3,0,0.,12.0,0.,12.0,0.,12.0,0.,12.0
1980-11-13 15:18:49.260 ,3,0,0.,12.0,0.,12.0,0.,12.0,0.,12.0
1980-11-13 15:19:01.260 ,2,1,0.,12.0,0.,12.0,0.,12.0,0.,12.0
1980-11-13 15:19:13.260 ,2,1,0.,12.0,0.,12.0,0.,12.0,0.,12.0
1980-11-13 15:19:25.260 ,2,0,0.,12.0,0.,12.0,0.,12.0,0.,12.0
1980-11-13 15:19:37.260 ,2,0,0.,12.0,0.,12.0,0.,12.0,0.,12.0
1980-11-13 15:19:49.260 ,1,1,0.,12.0,0.,12.0,0.,12.0,1.,12.0
1980-11-13 15:20:01.260 ,1,1,0.,12.0,0.,12.0,0.,12.0,0.,12.0
1980-11-13 15:20:13.260 ,1,0,0.,12.0,0.,12.0,0.,12.0,1.,12.0
1980-11-13 15:20:25.260 ,1,0,0.,12.0,0.,12.0,0.,12.0,0.,12.0
1980-11-13 15:20:37.260 ,0,1,0.,12.0,0.,12.0,0.,12.0,0.,12.0
1980-11-13 15:20:49.260 ,0,1,0.,12.0,0.,12.0,0.,12.0,0.,12.0
1980-11-13 15:21:01.260 ,0,0,0.,12.0,0.,12.0,0.,12.0,0.,12.0
1980-11-13 15:21:13.260 ,0,0,0.,12.0,0.,12.0,0.,12.0,0.,12.0
1980-11-13 15:21:25.260 ,0,1,0.,12.0,0.,12.0,0.,12.0,0.,12.0
1980-11-13 15:21:37.260 ,0,1,0.,12.0,0.,12.0,0.,12.0,0.,12.0
1980-11-13 15:21:49.260 ,0,0,0.,12.0,0.,12.0,0.,12.0,0.,12.0
1980-11-13 15:22:01.260 ,0,0,0.,12.0,0.,12.0,0.,12.0,0.,12.0
1980-11-13 15:22:13.260 ,1,1,0.,12.0,0.,12.0,0.,12.0,0.,12.0
1980-11-13 15:22:25.260 ,1,1,0.,12.0,0.,12.0,0.,12.0,0.,12.0
1980-11-13 15:22:37.260 ,1,0,0.,12.0,0.,12.0,0.,12.0,0.,12.0
1980-11-13 15:22:49.260 ,1,0,0.,12.0,0.,12.0,0.,12.0,0.,12.0
1980-11-13 15:23:01.260 ,2,1,0.,12.0,0.,12.0,0.,12.0,0.,12.0
1980-11-13 15:23:13.260 ,2,1,0.,12.0,0.,12.0,0.,12.0,0.,12.0
1980-11-13 15:23:25.260 ,2,0,0.,12.0,0.,12.0,0.,12.0,0.,12.0
1980-11-13 15:23:37.260 ,2,0,0.,12.0,0.,12.0,0.,12.0,0.,12.0
1980-11-13 15:23:49.260 ,3,1,0.,12.0,0.,12.0,0.,12.0,0.,12.0
1980-11-13 15:24:01.260 ,3,1,0.,12.0,0.,12.0,0.,12.0,0.,12.0
1980-11-13 15:24:13.260 ,3,0,0.,12.0,0.,12.0,0.,12.0,0.,12.0
1980-11-13 15:24:25.260 ,3,0,0.,12.0,0.,12.0,0.,12.0,0.,12.0
1980-11-13 15:24:37.260 ,4,1,0.,12.0,0.,12.0,0.,12.0,0.,12.0
1980-11-13 15:24:49.260 ,4,1,0.,12.0,0.,12.0,0.,12.0,0.,12.0
1980-11-13 15:25:01.260 ,4,0,0.,12.0,0.,12.0,0.,12.0,0.,12.0
1980-11-13 15:25:13.260 ,4,0,0.,12.0,0.,12.0,0.,12.0,0.,12.0
1980-11-13 15:25:25.260 ,5,1,0.,12.0,0.,12.0,0.,12.0,0.,12.0
1980-11-13 15:25:37.260 ,5,1,0.,12.0,0.,12.0,0.,12.0,0.,12.0
1980-11-13 15:25:49.260 ,5,0,0.,12.0,0.,12.0,0.,12.0,0.,12.0
1980-11-13 15:26:01.260 ,5,0,0.,12.0,0.,12.0,0.,12.0,0.,12.0
1980-11-13 15:26:13.260 ,6,1,0.,12.0,0.,12.0,0.,12.0,0.,12.0
1980-11-13 15:26:25.260 ,6,1,0.,12.0,0.,12.0,0.,12.0,0.,12.0
1980-11-13 15:26:37.260 ,6,0,0.,12.0,0.,12.0,0.,12.0,0.,12.0
1980-11-13 15:26:49.260 ,6,0,0.,12.0,0.,12.0,0.,12.0,0.,12.0
1980-11-13 15:27:01.260 ,7,1,0.,12.0,0.,12.0,0.,12.0,0.,12.0
1980-11-13 15:27:13.260 ,7,1,0.,12.0,1.,12.0,0.,12.0,1.,12.0
1980-11-13 15:27:25.260 ,7,0,0.,12.0,8.,12.0,0.,12.0,0.,12.0
1980-11-13 15:27:37.260 ,7,0,0.,12.0,5.,12.0,0.,12.0,0.,12.0
1980-11-13 15:27:49.260 ,7,1,0.,12.0,2.,12.0,0.,12.0,0.,12.0
1980-11-13 15:28:01.260 ,7,1,0.,12.0,5.,12.0,0.,12.0,0.,12.0
1980-11-13 15:28:13.260 ,7,0,0.,12.0,2.,12.0,0.,12.0,0.,12.0
1980-11-13 15:28:25.260 ,7,0,0.,12.0,6.,12.0,0.,12.0,0.,12.0
1980-11-13 15:28:37.260 ,6,1,0.,12.0,2.,12.0,0.,12.0,0.,12.0
1980-11-13 15:28:49.260 ,6,1,0.,12.0,2.,12.0,0.,12.0,0.,12.0
1980-11-13 15:29:01.260 ,6,0,0.,12.0,0.,12.0,0.,12.0,0.,12.0
1980-11-13 15:29:13.260 ,6,0,0.,12.0,0.,12.0,0.,12.0,0.,12.0
1980-11-13 15:29:25.260 ,5,1,0.,12.0,0.,12.0,0.,12.0,0.,12.0
1980-11-13 15:29:37.260 ,5,1,0.,12.0,0.,12.0,0.,12.0,0.,12.0
1980-11-13 15:29:49.260 ,5,0,0.,12.0,0.,12.0,0.,12.0,0.,12.0
1980-11-13 15:30:01.260 ,5,0,0.,12.0,0.,12.0,0.,12.0,0.,12.0
1980-11-13 15:30:13.260 ,4,1,0.,12.0,0.,12.0,0.,12.0,0.,12.0
1980-11-13 15:30:25.260 ,4,1,0.,12.0,0.,12.0,0.,12.0,0.,12.0
1980-11-13 15:30:37.260 ,4,0,0.,12.0,0.,12.0,0.,12.0,0.,12.0
1980-11-13 15:30:49.260 ,4,0,0.,12.0,0.,12.0,0.,12.0,0.,12.0
1980-11-13 15:31:01.260 ,3,1,0.,12.0,0.,12.0,0.,12.0,0.,12.0
1980-11-13 15:31:13.260 ,3,1,0.,12.0,0.,12.0,0.,12.0,0.,12.0
1980-11-13 15:31:25.260 ,3,0,0.,12.0,0.,12.0,0.,12.0,0.,12.0
1980-11-13 15:31:37.260 ,3,0,0.,12.0,0.,12.0,0.,12.0,0.,12.0
1980-11-13 15:31:49.260 ,2,1,0.,12.0,0.,12.0,0.,12.0,0.,12.0
1980-11-13 15:32:01.260 ,2,1,0.,12.0,0.,12.0,0.,12.0,0.,12.0
1980-11-13 15:32:13.260 ,2,0,0.,12.0,0.,12.0,0.,12.0,0.,12.0
1980-11-13 15:32:25.260 ,2,0,0.,12.0,0.,12.0,0.,12.0,0.,12.0
1980-11-13 15:32:37.260 ,1,1,0.,12.0,0.,12.0,0.,12.0,0.,12.0
1980-11-13 15:32:49.260 ,1,1,0.,12.0,0.,12.0,0.,12.0,0.,12.0
1980-11-13 15:33:01.260 ,1,0,0.,12.0,0.,12.0,0.,12.0,0.,12.0
1980-11-13 15:33:13.260 ,1,0,0.,12.0,0.,12.0,0.,12.0,0.,12.0
1980-11-13 15:33:25.260 ,0,1,0.,12.0,0.,12.0,0.,12.0,0.,12.0
1980-11-13 15:33:37.260 ,0,1,0.,12.0,0.,12.0,0.,12.0,0.,12.0
1980-11-13 15:33:49.260 ,0,0,0.,12.0,0.,12.0,0.,12.0,0.,12.0
1980-11-13 15:34:01.260 ,0,0,0.,12.0,0.,12.0,0.,12.0,0.,12.0
1980-11-13 15:34:13.250 ,0,1,0.,12.0,0.,12.0,0.,12.0,0.,12.0
1980-11-13 15:34:25.250 ,0,1,0.,12.0,0.,12.0,0.,12.0,0.,12.0
1980-11-13 15:34:37.250 ,0,0,0.,12.0,0.,12.0,0.,12.0,0.,12.0
1980-11-13 15:34:49.250 ,0,0,0.,12.0,0.,12.0,0.,12.0,0.,12.0
1980-11-13 15:35:01.250 ,1,1,0.,12.0,0.,12.0,0.,12.0,0.,12.0
1980-11-13 15:35:13.250 ,1,1,0.,12.0,0.,12.0,0.,12.0,0.,12.0
1980-11-13 15:35:25.250 ,1,0,0.,12.0,0.,12.0,0.,12.0,0.,12.0
1980-11-13 15:35:37.250 ,1,0,0.,12.0,0.,12.0,0.,12.0,0.,12.0
1980-11-13 15:35:49.250 ,2,1,0.,12.0,0.,12.0,0.,12.0,0.,12.0
1980-11-13 15:36:01.250 ,2,1,0.,12.0,0.,12.0,0.,12.0,0.,12.0
1980-11-13 15:36:13.250 ,2,0,0.,12.0,0.,12.0,0.,12.0,0.,12.0
1980-11-13 15:36:25.250 ,2,0,0.,12.0,0.,12.0,0.,12.0,0.,12.0
1980-11-13 15:36:37.250 ,3,1,0.,12.0,0.,12.0,0.,12.0,0.,12.0
1980-11-13 15:36:49.250 ,3,1,0.,12.0,0.,12.0,0.,12.0,0.,12.0
1980-11-13 15:37:01.250 ,3,0,0.,12.0,0.,12.0,0.,12.0,1.,12.0
1980-11-13 15:37:13.250 ,3,0,0.,12.0,0.,12.0,0.,12.0,0.,12.0
1980-11-13 15:37:25.250 ,4,1,0.,12.0,0.,12.0,0.,12.0,0.,12.0
1980-11-13 15:37:37.250 ,4,1,0.,12.0,0.,12.0,0.,12.0,0.,12.0
1980-11-13 15:37:49.250 ,4,0,0.,12.0,0.,12.0,0.,12.0,0.,12.0
1980-11-13 15:38:01.250 ,4,0,0.,12.0,0.,12.0,0.,12.0,0.,12.0
1980-11-13 15:38:13.250 ,5,1,0.,12.0,0.,12.0,0.,12.0,0.,12.0
1980-11-13 15:38:25.250 ,5,1,0.,12.0,0.,12.0,0.,12.0,0.,12.0
1980-11-13 15:38:37.250 ,5,0,0.,12.0,0.,12.0,0.,12.0,0.,12.0
1980-11-13 15:38:49.250 ,5,0,0.,12.0,0.,12.0,0.,12.0,0.,12.0
1980-11-13 15:39:01.250 ,6,1,0.,12.0,0.,12.0,0.,12.0,0.,12.0
1980-11-13 15:39:13.250 ,6,1,0.,12.0,0.,12.0,0.,12.0,0.,12.0
1980-11-13 15:39:25.250 ,6,0,0.,12.0,0.,12.0,0.,12.0,0.,12.0
1980-11-13 15:39:37.250 ,6,0,0.,12.0,0.,12.0,0.,12.0,1.,12.0
1980-11-13 15:39:49.250 ,7,1,0.,12.0,0.,12.0,0.,12.0,0.,12.0
1980-11-13 15:40:01.250 ,7,1,0.,12.0,3.,12.0,0.,12.0,0.,12.0
1980-11-13 15:40:13.250 ,7,0,0.,12.0,8.,12.0,0.,12.0,0.,12.0
1980-11-13 15:40:25.250 ,7,0,0.,12.0,3.,12.0,0.,12.0,0.,12.0
1980-11-13 15:40:37.250 ,7,1,0.,12.0,2.,12.0,0.,12.0,0.,12.0
1980-11-13 15:40:49.250 ,7,1,0.,12.0,6.,12.0,0.,12.0,0.,12.0
1980-11-13 15:41:01.250 ,7,0,0.,12.0,1.,12.0,0.,12.0,1.,12.0
1980-11-13 15:41:13.250 ,7,0,0.,12.0,7.,12.0,0.,12.0,0.,12.0
1980-11-13 15:41:25.250 ,6,1,0.,12.0,2.,12.0,0.,12.0,0.,12.0
1980-11-13 15:41:37.250 ,6,1,0.,12.0,2.,12.0,0.,12.0,0.,12.0
1980-11-13 15:41:49.250 ,6,0,0.,12.0,0.,12.0,0.,12.0,0.,12.0
1980-11-13 15:42:01.250 ,6,0,0.,12.0,0.,12.0,0.,12.0,0.,12.0
1980-11-13 15:42:13.250 ,5,1,0.,12.0,0.,12.0,0.,12.0,0.,12.0
1980-11-13 15:42:25.250 ,5,1,0.,12.0,0.,12.0,0.,12.0,0.,12.0
1980-11-13 15:42:37.250 ,5,0,0.,12.0,0.,12.0,0.,12.0,0.,12.0
1980-11-13 15:42:49.250 ,5,0,0.,12.0,0.,12.0,0.,12.0,0.,12.0
1980-11-13 15:43:01.250 ,4,1,0.,12.0,0.,12.0,0.,12.0,0.,12.0
1980-11-13 15:43:13.250 ,4,1,0.,12.0,0.,12.0,0.,12.0,0.,12.0
1980-11-13 15:43:25.250 ,4,0,0.,12.0,0.,12.0,0.,12.0,0.,12.0
1980-11-13 15:43:37.250 ,4,0,0.,12.0,0.,12.0,0.,12.0,0.,12.0
1980-11-13 15:43:49.250 ,3,1,0.,12.0,1.,12.0,0.,12.0,0.,12.0
1980-11-13 15:44:01.250 ,3,1,0.,12.0,0.,12.0,0.,12.0,0.,12.0
1980-11-13 15:44:13.250 ,3,0,0.,12.0,0.,12.0,0.,12.0,0.,12.0
1980-11-13 15:44:25.250 ,3,0,0.,12.0,0.,12.0,0.,12.0,0.,12.0
1980-11-13 15:44:37.250 ,2,1,0.,12.0,0.,12.0,0.,12.0,0.,12.0
1980-11-13 15:44:49.250 ,2,1,0.,12.0,0.,12.0,0.,12.0,0.,12.0
1980-11-13 15:45:01.250 ,2,0,0.,12.0,0.,12.0,0.,12.0,0.,12.0
1980-11-13 15:45:13.250 ,2,0,0.,12.0,0.,12.0,0.,12.0,0.,12.0
1980-11-13 15:45:25.250 ,1,1,0.,12.0,0.,12.0,0.,12.0,0.,12.0
1980-11-13 15:45:37.250 ,1,1,0.,12.0,0.,12.0,0.,12.0,0.,12.0
1980-11-13 15:45:49.250 ,1,0,0.,12.0,0.,12.0,0.,12.0,0.,12.0
1980-11-13 15:46:01.250 ,1,0,0.,12.0,0.,12.0,0.,12.0,0.,12.0
1980-11-13 15:46:13.250 ,0,1,0.,12.0,0.,12.0,0.,12.0,1.,12.0
1980-11-13 15:46:25.250 ,0,1,0.,12.0,0.,12.0,0.,12.0,0.,12.0
1980-11-13 15:46:37.250 ,0,0,0.,12.0,0.,12.0,0.,12.0,0.,12.0
1980-11-13 15:46:49.250 ,0,0,0.,12.0,0.,12.0,0.,12.0,0.,12.0
1980-11-13 15:47:01.250 ,0,1,0.,12.0,0.,12.0,0.,12.0,0.,12.0
1980-11-13 15:47:13.250 ,0,1,0.,12.0,0.,12.0,0.,12.0,0.,12.0
1980-11-13 15:47:25.250 ,0,0,0.,12.0,0.,12.0,0.,12.0,0.,12.0
1980-11-13 15:47:37.250 ,0,0,0.,12.0,0.,12.0,0.,12.0,0.,12.0
1980-11-13 15:47:49.250 ,1,1,0.,12.0,0.,12.0,0.,12.0,0.,12.0
1980-11-13 15:48:01.250 ,1,1,0.,12.0,0.,12.0,0.,12.0,0.,12.0
1980-11-13 15:48:13.250 ,1,0,0.,12.0,0.,12.0,0.,12.0,0.,12.0
1980-11-13 15:48:25.250 ,1,0,0.,12.0,0.,12.0,0.,12.0,0.,12.0
1980-11-13 15:48:37.250 ,2,1,0.,12.0,0.,12.0,0.,12.0,0.,12.0
1980-11-13 15:48:49.250 ,2,1,0.,12.0,0.,12.0,0.,12.0,0.,12.0
1980-11-13 15:49:01.250 ,2,0,0.,12.0,0.,12.0,0.,12.0,0.,12.0
1980-11-13 15:49:13.250 ,2,0,0.,12.0,0.,12.0,0.,12.0,0.,12.0
1980-11-13 15:49:25.250 ,3,1,0.,12.0,0.,12.0,0.,12.0,0.,12.0
1980-11-13 15:49:37.250 ,3,1,0.,12.0,0.,12.0,0.,12.0,0.,12.0
1980-11-13 15:49:49.250 ,3,0,0.,12.0,0.,12.0,0.,12.0,0.,12.0
1980-11-13 15:50:01.250 ,3,0,0.,12.0,0.,12.0,0.,12.0,0.,12.0
1980-11-13 15:50:13.250 ,4,1,0.,12.0,0.,12.0,0.,12.0,0.,12.0
1980-11-13 15:50:25.250 ,4,1,0.,12.0,0.,12.0,0.,12.0,0.,12.0
1980-11-13 15:50:37.250 ,4,0,0.,12.0,0.,12.0,0.,12.0,0.,12.0
1980-11-13 15:50:49.250 ,4,0,0.,12.0,0.,12.0,0.,12.0,1.,12.0
1980-11-13 15:51:01.250 ,5,1,0.,12.0,0.,12.0,0.,12.0,0.,12.0
1980-11-13 15:51:13.250 ,5,1,0.,12.0,0.,12.0,0.,12.0,0.,12.0
1980-11-13 15:51:25.250 ,5,0,,0,,0,,0,,0
1980-11-13 15:51:37.250 ,5,0,0.,12.0,0.,12.0,0.,12.0,0.,12.0
1980-11-13 15:51:49.250 ,6,1,0.,12.0,0.,12.0,0.,12.0,1.,12.0
1980-11-13 15:52:01.250 ,6,1,0.,12.0,0.,12.0,0.,12.0,0.,12.0
1980-11-13 15:52:13.250 ,0,0,0.,12.0,0.,12.0,0.,12.0,0.,12.0
1980-11-13 15:52:25.250 ,0,0,0.,12.0,0.,12.0,0.,12.0,0.,12.0
1980-11-13 15:53:11.450 ,0,0,,0,,0,,0,,0
1980-11-13 15:53:23.450 ,0,0,0.,12.0,7.,12.0,0.,12.0,0.,12.0
1980-11-13 15:53:25.250 ,7,1,0.,12.0,3.,12.0,0.,12.0,0.,12.0
1980-11-13 15:53:37.250 ,7,1,0.,12.0,7.,12.0,0.,12.0,1.,12.0
1980-11-13 15:53:49.250 ,7,0,0.,12.0,5.,12.0,0.,12.0,0.,12.0
1980-11-13 15:54:01.250 ,7,0,0.,12.0,3.,12.0,0.,12.0,0.,12.0
1980-11-13 15:54:13.250 ,6,1,0.,12.0,4.,12.0,0.,12.0,0.,12.0
1980-11-13 15:54:25.250 ,6,1,0.,12.0,2.,12.0,0.,12.0,0.,12.0
1980-11-13 15:54:37.250 ,6,0,0.,12.0,0.,12.0,0.,12.0,0.,12.0
1980-11-13 15:54:49.250 ,6,0,0.,12.0,0.,12.0,0.,12.0,0.,12.0
1980-11-13 15:55:01.250 ,5,1,0.,12.0,0.,12.0,0.,12.0,0.,12.0
1980-11-13 15:55:13.250 ,5,1,0.,12.0,0.,12.0,0.,12.0,0.,12.0
1980-11-13 15:55:25.250 ,5,0,0.,12.0,0.,12.0,0.,12.0,0.,12.0
1980-11-13 15:55:37.250 ,5,0,0.,12.0,0.,12.0,0.,12.0,0.,12.0
1980-11-13 15:55:49.250 ,4,1,0.,12.0,0.,12.0,0.,12.0,0.,12.0
1980-11-13 15:56:01.250 ,4,1,0.,12.0,0.,12.0,0.,12.0,0.,12.0
1980-11-13 15:56:13.250 ,4,0,0.,12.0,0.,12.0,0.,12.0,0.,12.0
1980-11-13 15:56:25.250 ,4,0,0.,12.0,0.,12.0,0.,12.0,0.,12.0
1980-11-13 15:56:37.250 ,3,1,0.,12.0,0.,12.0,0.,12.0,1.,12.0
1980-11-13 15:56:49.250 ,3,1,0.,12.0,0.,12.0,0.,12.0,0.,12.0
1980-11-13 15:57:01.250 ,3,0,0.,12.0,0.,12.0,0.,12.0,0.,12.0
1980-11-13 15:57:13.250 ,3,0,0.,12.0,0.,12.0,0.,12.0,0.,12.0
1980-11-13 15:57:25.250 ,2,1,0.,12.0,0.,12.0,0.,12.0,0.,12.0
1980-11-13 15:57:37.250 ,2,1,0.,12.0,0.,12.0,0.,12.0,0.,12.0
1980-11-13 15:57:49.250 ,2,0,0.,12.0,0.,12.0,0.,12.0,0.,12.0
1980-11-13 15:58:01.250 ,2,0,0.,12.0,0.,12.0,0.,12.0,0.,12.0
1980-11-13 15:58:13.250 ,1,1,0.,12.0,0.,12.0,0.,12.0,0.,12.0
1980-11-13 15:58:25.250 ,1,1,0.,12.0,0.,12.0,0.,12.0,0.,12.0
1980-11-13 15:58:37.250 ,1,0,0.,12.0,0.,12.0,0.,12.0,0.,12.0
1980-11-13 15:58:49.250 ,1,0,0.,12.0,0.,12.0,0.,12.0,0.,12.0
1980-11-13 15:59:01.250 ,0,1,0.,12.0,0.,12.0,0.,12.0,0.,12.0
1980-11-13 15:59:13.250 ,0,1,0.,12.0,0.,12.0,0.,12.0,0.,12.0
1980-11-13 15:59:25.250 ,0,0,0.,12.0,0.,12.0,0.,12.0,0.,12.0
1980-11-13 15:59:37.250 ,0,0,0.,12.0,0.,12.0,0.,12.0,1.,12.0
1980-11-13 15:59:49.250 ,0,1,0.,12.0,0.,12.0,0.,12.0,0.,12.0
1980-11-13 16:00:01.250 ,0,1,0.,12.0,0.,12.0,0.,12.0,0.,12.0
1980-11-13 16:00:13.260 ,0,0,0.,12.0,0.,12.0,0.,12.0,0.,12.0
1980-11-13 16:00:25.260 ,0,0,0.,12.0,0.,12.0,0.,12.0,0.,12.0
1980-11-13 16:00:37.260 ,1,1,0.,12.0,0.,12.0,0.,12.0,0.,12.0
1980-11-13 16:00:49.260 ,1,1,0.,12.0,0.,12.0,0.,12.0,0.,12.0
1980-11-13 16:01:01.260 ,1,0,0.,12.0,0.,12.0,0.,12.0,0.,12.0
1980-11-13 16:01:13.260 ,1,0,0.,12.0,0.,12.0,0.,12.0,0.,12.0
1980-11-13 16:01:25.260 ,2,1,0.,12.0,0.,12.0,0.,12.0,0.,12.0
1980-11-13 16:01:37.260 ,2,1,0.,12.0,0.,12.0,0.,12.0,1.,12.0
1980-11-13 16:01:49.260 ,2,0,0.,12.0,0.,12.0,0.,12.0,0.,12.0
1980-11-13 16:02:01.260 ,2,0,0.,12.0,0.,12.0,0.,12.0,0.,12.0
1980-11-13 16:02:13.250 ,3,1,0.,12.0,0.,12.0,0.,12.0,0.,12.0
1980-11-13 16:02:25.260 ,3,1,0.,12.0,0.,12.0,0.,12.0,1.,12.0
1980-11-13 16:02:37.250 ,3,0,0.,12.0,0.,12.0,0.,12.0,0.,12.0
1980-11-13 16:02:49.260 ,3,0,0.,12.0,0.,12.0,0.,12.0,0.,12.0
1980-11-13 16:03:01.250 ,4,1,0.,12.0,0.,12.0,0.,12.0,0.,12.0
1980-11-13 16:03:13.260 ,4,1,0.,12.0,0.,12.0,0.,12.0,0.,12.0
1980-11-13 16:03:25.250 ,4,0,0.,12.0,0.,12.0,0.,12.0,0.,12.0
1980-11-13 16:03:37.260 ,4,0,0.,12.0,0.,12.0,0.,12.0,0.,12.0
1980-11-13 16:03:49.250 ,5,1,0.,12.0,0.,12.0,0.,12.0,0.,12.0
1980-11-13 16:04:01.260 ,5,1,0.,12.0,0.,12.0,0.,12.0,0.,12.0
1980-11-13 16:04:13.250 ,5,0,0.,12.0,0.,12.0,0.,12.0,0.,12.0
1980-11-13 16:04:25.260 ,5,0,0.,12.0,0.,12.0,0.,12.0,0.,12.0
1980-11-13 16:04:37.260 ,6,1,0.,12.0,0.,12.0,0.,12.0,0.,12.0
1980-11-13 16:04:49.260 ,6,1,0.,12.0,0.,12.0,0.,12.0,0.,12.0
1980-11-13 16:05:01.260 ,6,0,0.,12.0,0.,12.0,0.,12.0,0.,12.0
1980-11-13 16:05:13.260 ,6,0,0.,12.0,0.,12.0,0.,12.0,0.,12.0
1980-11-13 16:05:25.260 ,7,1,0.,12.0,0.,12.0,0.,12.0,0.,12.0
1980-11-13 16:05:37.260 ,7,1,0.,12.0,3.,12.0,0.,12.0,0.,12.0
1980-11-13 16:05:49.260 ,7,0,0.,12.0,3.,12.0,0.,12.0,0.,12.0
1980-11-13 16:06:01.260 ,7,0,0.,12.0,2.,12.0,0.,12.0,0.,12.0
1980-11-13 16:06:13.260 ,7,1,0.,12.0,5.,12.0,0.,12.0,0.,12.0
1980-11-13 16:06:25.260 ,7,1,0.,12.0,5.,12.0,0.,12.0,0.,12.0
1980-11-13 16:06:37.260 ,7,0,0.,12.0,4.,12.0,0.,12.0,0.,12.0
1980-11-13 16:06:49.260 ,7,0,0.,12.0,5.,12.0,0.,12.0,0.,12.0
1980-11-13 16:07:01.260 ,6,1,0.,12.0,4.,12.0,0.,12.0,0.,12.0
1980-11-13 16:07:13.260 ,6,1,0.,12.0,1.,12.0,0.,12.0,0.,12.0
1980-11-13 16:07:25.260 ,6,0,0.,12.0,0.,12.0,0.,12.0,0.,12.0
1980-11-13 16:07:37.260 ,6,0,0.,12.0,0.,12.0,0.,12.0,0.,12.0
1980-11-13 16:07:49.260 ,5,1,0.,12.0,0.,12.0,0.,12.0,0.,12.0
1980-11-13 16:08:01.260 ,5,1,0.,12.0,0.,12.0,0.,12.0,0.,12.0
1980-11-13 16:08:13.260 ,5,0,0.,12.0,0.,12.0,0.,12.0,0.,12.0
1980-11-13 16:08:25.260 ,5,0,0.,12.0,0.,12.0,0.,12.0,0.,12.0
1980-11-13 16:08:37.260 ,4,1,0.,12.0,0.,12.0,0.,12.0,0.,12.0
1980-11-13 16:08:49.260 ,4,1,0.,12.0,0.,12.0,0.,12.0,1.,12.0
1980-11-13 16:09:01.260 ,4,0,0.,12.0,0.,12.0,0.,12.0,0.,12.0
1980-11-13 16:09:13.260 ,4,0,0.,12.0,0.,12.0,0.,12.0,0.,12.0
1980-11-13 16:09:25.260 ,3,1,0.,12.0,0.,12.0,0.,12.0,0.,12.0
1980-11-13 16:09:37.260 ,3,1,0.,12.0,0.,12.0,0.,12.0,0.,12.0
1980-11-13 16:09:49.260 ,3,0,0.,12.0,0.,12.0,0.,12.0,0.,12.0
1980-11-13 16:10:01.260 ,3,0,0.,12.0,0.,12.0,0.,12.0,0.,12.0
1980-11-13 16:10:13.260 ,2,1,0.,12.0,0.,12.0,0.,12.0,0.,12.0
1980-11-13 16:10:25.260 ,2,1,0.,12.0,0.,12.0,0.,12.0,0.,12.0
1980-11-13 16:10:37.260 ,2,0,0.,12.0,0.,12.0,0.,12.0,0.,12.0
1980-11-13 16:10:49.260 ,2,0,0.,12.0,0.,12.0,0.,12.0,0.,12.0
1980-11-13 16:11:01.260 ,1,1,0.,12.0,0.,12.0,0.,12.0,0.,12.0
1980-11-13 16:11:13.260 ,1,1,0.,12.0,0.,12.0,0.,12.0,0.,12.0
1980-11-13 16:11:25.260 ,1,0,0.,12.0,0.,12.0,0.,12.0,0.,12.0
1980-11-13 16:11:37.260 ,1,0,0.,12.0,0.,12.0,0.,12.0,0.,12.0
1980-11-13 16:11:49.260 ,0,1,0.,12.0,0.,12.0,0.,12.0,0.,12.0
1980-11-13 16:12:01.260 ,0,1,0.,12.0,0.,12.0,0.,12.0,0.,12.0
1980-11-13 16:12:13.260 ,0,0,0.,12.0,0.,12.0,0.,12.0,0.,12.0
1980-11-13 16:12:25.260 ,0,0,0.,12.0,0.,12.0,0.,12.0,0.,12.0
1980-11-13 16:12:37.260 ,0,1,0.,12.0,0.,12.0,0.,12.0,0.,12.0
1980-11-13 16:12:49.260 ,0,1,0.,12.0,0.,12.0,0.,12.0,0.,12.0
1980-11-13 16:13:01.260 ,0,0,0.,12.0,0.,12.0,0.,12.0,0.,12.0
1980-11-13 16:13:13.260 ,0,0,0.,12.0,0.,12.0,0.,12.0,0.,12.0
1980-11-13 16:13:25.260 ,1,1,0.,12.0,0.,12.0,0.,12.0,0.,12.0
1980-11-13 16:13:37.260 ,1,1,0.,12.0,0.,12.0,0.,12.0,0.,12.0
1980-11-13 16:13:49.260 ,1,0,0.,12.0,0.,12.0,0.,12.0,0.,12.0
1980-11-13 16:14:01.260 ,1,0,0.,12.0,0.,12.0,0.,12.0,0.,12.0
1980-11-13 16:14:13.260 ,2,1,0.,12.0,0.,12.0,0.,12.0,0.,12.0
1980-11-13 16:14:25.260 ,2,1,0.,12.0,0.,12.0,0.,12.0,0.,12.0
1980-11-13 16:14:37.260 ,2,0,0.,12.0,0.,12.0,0.,12.0,0.,12.0
1980-11-13 16:14:49.260 ,2,0,0.,12.0,0.,12.0,0.,12.0,1.,12.0
1980-11-13 16:15:01.260 ,3,1,0.,12.0,0.,12.0,0.,12.0,0.,12.0
1980-11-13 16:15:13.260 ,3,1,0.,12.0,0.,12.0,0.,12.0,0.,12.0
1980-11-13 16:15:25.260 ,3,0,0.,12.0,0.,12.0,0.,12.0,0.,12.0
1980-11-13 16:15:37.260 ,3,0,0.,12.0,0.,12.0,0.,12.0,0.,12.0
1980-11-13 16:15:49.260 ,4,1,0.,12.0,0.,12.0,0.,12.0,0.,12.0
1980-11-13 16:16:01.260 ,4,1,0.,12.0,0.,12.0,0.,12.0,0.,12.0
1980-11-13 16:16:13.260 ,4,0,0.,12.0,0.,12.0,0.,12.0,0.,12.0
1980-11-13 16:16:25.260 ,4,0,0.,12.0,0.,12.0,0.,12.0,0.,12.0
1980-11-13 16:16:37.260 ,5,1,0.,12.0,0.,12.0,0.,12.0,0.,12.0
1980-11-13 16:16:49.260 ,5,1,0.,12.0,0.,12.0,0.,12.0,0.,12.0
1980-11-13 16:17:01.260 ,5,0,0.,12.0,0.,12.0,0.,12.0,0.,12.0
1980-11-13 16:17:13.260 ,5,0,0.,12.0,0.,12.0,0.,12.0,0.,12.0
1980-11-13 16:17:25.260 ,6,1,0.,12.0,0.,12.0,0.,12.0,0.,12.0
1980-11-13 16:17:37.260 ,6,1,0.,12.0,0.,12.0,0.,12.0,0.,12.0